Погода в Кызылорде

Погода в Кызылорде : погода сейчас, прогноз погоды и архив. Всё, что Вы хотите узнать о погоде в Кызылорде!

Хотите узнать прогноз погоды в Кызылорде? Тогда Вам сюда: Погода в Кызылорде

Поиск расширенной информации на нашем сайте:

Другие новости

Новости СМИ2

Главная страница сайта

Новости сайта

03.07.2017

Напоминаем, что на нашем специализированном сайте Метеоцентр.Азия вы можете получить высокодетализированные автоматические прогнозы погоды по пунктам России, СНГ и мира в авиационном формате (включающие направление и скорость ветра, видимость, явления погоды, количество и форму облачности, нижнюю и верхнюю границу облачности).


Погода в Кызылорде - сегодня

Время (UTC), дата Ветер
(°,м/с) 
Видим.   Явления Облачность Т
(°С)
Тd
(°С)
f(%) Тe
(°С)
Pmin
(гПа)
dP
(гПа)
Po
(мм)
O2
(г/м3)
Тmin Tmax R s Состояние
почвы
06 10.10.18 030 (СВ) 20000 м    3/0 верхняя 
[Ci fib]
+17 -1.7 28 +18  1027.7  0.2  759  288  +4.2         
09 10.10.18 010 (С) 20000 м    4/0 средняя 
[Ac lent]
+20.6 -2.2 21 +21  1026  -1.5  758  284           
12 10.10.18 030 (СВ) 20000 м    3/0 средняя 
[Ac lent]
+20.3 -3.3 20 +20  1025.6  -0.5  758  285           
15 10.10.18 020 (С) н/о    ясно 
+14.7 +1.7 41 +16  1026.4  0.6  758  290    +21.8       
18 10.10.18 тихо ()   н/о    ясно 
+11.1 +3 57 +11  1026.3  -0.3  758  293    +21.8       
21 10.10.18 тихо ()   н/о    ясно 
+10.7 +3.4 61 +11  1025.9  -0.4  758  293           
00 11.10.18 тихо ()   н/о    ясно 
+8.4 +2.1 64 +8  1025.2  -0.8  757  296           
06 11.10.18 тихо ()   20000 м    4/0 средняя, верхняя 
[Ac lent|Ci fib]
+20.3 +2.5 31 +20  1023.4  -1  756  283  +6.7         
09 11.10.18 250 (З) 20000 м    3/0 верхняя 
[Ci fib]
+23 -1.9 19 +23  1020.8  -2.3  754  281           
12 11.10.18 270 (З) 20000 м    3/0 верхняя 
[Ci fib]
+21.3 -1.9 21 +21  1019.2  -1.7  753  282           
15 11.10.18 210 (ЮЗ) н/о    ясно 
+15.1 -0.7 34 +16  1019.5  753  288    +24.7       
18 11.10.18 250 (З) н/о    ясно 
+12.5 -0.5 41 +14  1018.2  -1.4  752  290    +24.7       
21 11.10.18 200 (Ю) н/о    ясно 
+11.2 +0.6 48 +11  1016.9  -1.4  751  291           
00 12.10.18 230 (ЮЗ) н/о    ясно 
+9.4 +0.9 55 +9  1015.5  -1.5  750  292           
21 12.10.18 270 (З) н/о    3/0 средняя 
[Ac cuf]
+4.7 -1.3 65 +4  1013.7  0.2  748  297           
00 13.10.18 250 (З) н/о    6/3 1000 м кучево-дожд., средняя 
[Cb cap|Ac cast]
+1.9 -1.8 76 +1  1014.6  0.7  749  300           
09 13.10.18 280 (З) 20000 м  {ливн. осадки}  6/6 1000 м кучево-дожд. 
[Cb calv]
+8.5 -6 35 +7  1020.4  1.7  753  295           
21 13.10.18 240 (ЮЗ) н/о    3/0 средняя 
[Ac cast]
+4.2 -5.2 50 +4  1024.3  -0.5  756  301           
00 14.10.18 250 (З) н/о    8/4 1000 м кучево-дожд., средняя 
[Cb cap|Ac cast]
+4.2 -4.4 53 +4  1023.8  -0.5  756  300           
06 14.10.18 220 (ЮЗ) 20000 м    10/10 600 м кучево-дожд. 
[Cb cap]
+7.1 -1.7 53 +6  1022.9  -0.3  755  297  +3.5         
09 14.10.18 220 (ЮЗ) 20000 м  {ливн. осадки}  10/10 600 м кучево-дожд. 
[Cb cap]
+8.4 -1.7 49 +7  1020.4  -2.5  753  295           
21 14.10.18 240 (ЮЗ) н/о  {дождь}  10/10 600 м 
[Sc]
+4.8 +3.3 90 +4  1015  -1.2  749  296           
09 15.10.18 340 (С) 20000 м    8/8 600 м кучево-дожд. 
[Cb calv]
+7.9 -4.1 42 +6  1013.1  0.4  748  293           
12 15.10.18 300 (СЗ) 20000 м    9/9 600 м кучево-дожд. 
[Cb cap]
+6.4 -4.6 45 +4  1015.7  2.4  750  296           
15 15.10.18 280 (З) н/о    9/6 600 м кучево-дожд., средняя 
[Cb cap|Ac As]
+5.2 -4.1 51 +4  1017.7  751  298    +10.1       
Время (UTC), дата Ветер
(°,м/с) 
Видим.   Явления Облачность Т
(°С)
Тd
(°С)
f(%) Тe
(°С)
Pmin
(гПа)
dP
(гПа)
Po
(мм)
O2
(г/м3)
Тmin Tmax R s Состояние
почвы

Для получения пояснительной информации подведите курсор к названию столбца.

ПОГОДА в Кызылорде - архив

Всё, что Вы хотите узнать о погоде в Кызылорде - удобно и подробно!

Выберите нужную дату (начиная с 1 января 2015* года) и нажмите кнопку "Найти".
Будут отображены архивные сводки погоды по пункту Кызылорда, начиная с указанной даты.


Отображать данные в формате CSV (для использования в таблицах Excel)


Внимание! Наш архив погоды предназначен исключительно для личного некоммерческого использования в познавательных целях. Если Вам необходимы официальные справки о состоянии погоды (для производственных, юридических, коммерческих и т.п. целей), обращайтесь в органы Росгидромета.

*Примечание: данная дата относится к архиву по метеостанциям СССР (Россия, СНГ, Балтия).
Архив по метеостанциям Зарубежной Европы и Азии (кроме Китая) хранится 10 дней, по другим регионам земного шара (Китай, Африка, Америка, Австралия, Океания) - 1 день.

Кызылорда - район местоположения метеостанции


Название, широта, долгота, высота метеостанции:
Кызылорда (город) 44.8°ш. 65.5°д. 130 м над ур. моря [Казахстан]

Дополнительная информация

В oтличие oт бoльшинства пoгoдных сайтoв мы публикуем пoдрoбную метеoинфoрмацию в детальнoм прoфессиoнальнoм фoрмате.

Характеристики температуры и влажнoсти вoздуха измеряются на высoте 2 м в тени вдали oт зданий и деревьев.
Скoрoсть ветра измеряется на высoте 10 м (на урoвне рoста челoвека скoрoсть ветра ниже в 1.5-2 раза). Если метеoстанция нахoдится в гoрoде или в лесу, тo скoрoсть ветра занижена на 2-4 м/с пo сравнению с oткрытым местoм. Скoрoсть ветра над акватoриями крупных рек и oзёр, а также на вершинах хoлмoв на 2-5 м/с выше, чем в oбычных услoвиях.
Атмoсфернoе давление в разных тoчках местнoсти мoжет значительнo oтличаться oт давления на метеoстанции, в зависимoсти oт услoвий рельефа (при пoдъёме на 10 м давление пoнижается примернo на 1 мм рт.ст.).